CW4610 Weather Reports


Display with metric or nautical units.
time (UTC)temp
F
wind
direction
speed
MPH
gust
MPH
rain 1hr
in
rain 24hr
in
rain mn
in
humidity
%
barometer
mb
20260903121059 54 25 0.0 0.0 0.00 0.76 0.03 98 1005.2
20260903120058 54 25 0.0 0.0 0.00 0.76 0.03 98 1005.1
20260903115018 54 23 0.0 1.0 0.00 0.86 0.03 98 1005.1
20260903114018 55 25 0.0 0.0 0.00 0.86 0.03 98 1004.9
20260903113018 55 23 1.0 2.0 0.00 0.86 0.03 98 1004.8
20260903112018 55 23 2.0 3.0 0.00 0.86 0.03 98 1004.7
20260903111017 55 23 0.0 3.0 0.00 0.86 0.03 98 1004.7
20260903110018 55 158 1.0 3.0 0.00 0.86 0.03 98 1004.6
20260903105100 55 135 0.0 1.0 0.01 0.87 0.03 98 1004.5
20260903104018 55 135 0.0 1.0 0.01 0.87 0.03 98 1004.4
20260903103017 55 136 0.0 0.0 0.01 0.87 0.03 97 1004.3
20260903102020 55 135 0.0 2.0 0.01 0.87 0.03 97 1004.3
20260903101020 55 135 0.0 1.0 0.01 0.87 0.03 97 1004.3
20260903100044 54 135 3.0 4.0 0.01 0.87 0.03 97 1004.2
20260903095020 54 68 1.0 2.0 0.00 0.89 0.02 97 1004.2
20260903094022 54 113 1.0 2.0 0.00 0.89 0.02 97 1004.1
20260903093059 54 113 1.0 2.0 0.00 0.89 0.02 97 1004.0
20260903092018 54 90 1.0 3.0 0.00 0.89 0.02 97 1004.0
20260903091039 54 90 1.0 2.0 0.00 0.89 0.02 97 1003.9
20260903090020 54 135 1.0 2.0 0.00 0.89 0.02 97 1003.9
20260903085020 54 135 1.0 2.0 0.00 1.02 0.02 97 1003.9
20260903084020 54 68 1.0 3.0 0.00 1.02 0.02 97 1003.8
20260903083023 54 180 2.0 5.0 0.01 1.02 0.02 97 1003.7
20260903082020 54 113 2.0 3.0 0.02 1.02 0.02 97 1003.7
20260903081019 54 113 1.0 2.0 0.02 1.02 0.02 97 1003.6
20260903080059 54 45 2.0 4.0 0.02 1.02 0.02 97 1003.6
20260903075019 54 45 1.0 3.0 0.02 1.08 0.02 97 1003.6
20260903074019 54 90 2.0 3.0 0.02 1.08 0.02 97 1003.5
20260903073019 54 90 2.0 3.0 0.01 1.07 0.01 97 1003.4
20260903072020 54 68 1.0 2.0 0.00 1.06 0.00 97 1003.3
20260903071020 54 23 2.0 3.0 0.00 1.06 0.00 96 1003.0
20260903070100 54 68 2.0 4.0 0.00 1.07 1.06 96 1003.0
20260903065019 54 0 2.0 3.0 0.00 1.07 1.06 97 1003.0
20260903064019 54 23 1.0 2.0 0.00 1.07 1.06 96 1002.9
20260903063058 54 68 2.0 5.0 0.00 1.07 1.06 96 1002.7
20260903062019 54 68 3.0 6.0 0.00 1.07 1.06 96 1002.7
20260903061021 54 68 2.0 3.0 0.00 1.07 1.06 96 1002.6
20260903060058 54 68 3.0 6.0 0.00 1.07 1.06 96 1002.5
20260903055018 55 68 3.0 5.0 0.01 1.07 1.06 96 1002.5
20260903054019 55 90 4.0 7.0 0.01 1.07 1.06 96 1002.5
20260903053018 55 45 1.0 2.0 0.01 1.07 1.06 95 1002.3
20260903052058 55 23 2.0 3.0 0.01 1.07 1.06 95 1002.2
20260903051018 55 90 0.0 2.0 0.02 1.07 1.06 95 1002.1
20260903050018 55 113 2.0 4.0 0.02 1.07 1.06 94 1002.1
20260903045018 56 135 1.0 2.0 0.02 1.06 1.05 95 1002.1
20260903044018 56 135 3.0 7.0 0.03 1.06 1.05 95 1002.0
20260903043018 56 113 5.0 9.0 0.05 1.06 1.05 95 1002.0
20260903042019 57 135 8.0 15.0 0.07 1.06 1.05 96 1001.9
20260903041019 58 135 5.0 7.0 0.07 1.05 1.04 97 1001.5
20260903040058 58 113 3.0 5.0 0.10 1.05 1.04 97 1001.1
20260903035058 58 113 2.0 3.0 0.11 1.04 1.03 97 1000.9
20260903034018 58 113 1.0 2.0 0.12 1.03 1.02 96 1000.6
20260903033058 58 113 1.0 3.0 0.13 1.01 1.00 96 1000.5
20260903032058 58 158 1.0 3.0 0.13 0.99 0.98 97 1000.4
20260903031019 58 135 1.0 2.0 0.14 0.98 0.97 96 1000.1
20260903030019 58 68 0.0 2.0 0.13 0.95 0.94 96 999.9
20260903025018 58 45 1.0 3.0 0.12 0.93 0.92 96 999.9
20260903024018 58 158 1.0 3.0 0.09 0.90 0.89 96 999.9
20260903023018 58 203 1.0 2.0 0.06 0.87 0.86 96 999.7
20260903022058 59 23 1.0 2.0 0.05 0.86 0.85 96 999.7
20260903021017 59 180 1.0 2.0 0.04 0.84 0.83 96 999.7
20260903020059 59 180 1.0 2.0 0.02 0.82 0.81 96 999.6
20260903015020 59 90 2.0 3.0 0.02 0.81 0.80 96 999.6
20260903014059 59 113 2.0 3.0 0.02 0.81 0.80 96 999.6
20260903013019 59 180 1.0 2.0 0.04 0.81 0.80 96 999.5
20260903012020 59 203 1.0 2.0 0.06 0.81 0.80 96 999.4
20260903011100 59 90 0.0 2.0 0.08 0.80 0.79 95 999.3
20260903010020 59 45 2.0 3.0 0.10 0.80 0.79 95 999.5
20260903005020 59 45 2.0 4.0 0.11 0.79 0.78 95 999.6
20260903004047 59 23 2.0 4.0 0.11 0.78 0.77 95 999.9
20260903003020 59 158 1.0 3.0 0.11 0.77 0.76 95 999.9
20260903002021 59 135 0.0 2.0 0.10 0.75 0.74 95 999.9
20260903001020 59 275 0.0 0.0 0.09 0.72 0.71 95 999.9
20260903000020 59 270 0.0 1.0 0.09 0.70 0.69 95 999.9
20260902235059 59 270 0.0 2.0 0.09 0.68 0.67 95 999.9
20260902234020 60 270 0.0 1.0 0.09 0.67 0.66 95 1000.0
20260902233020 60 270 0.0 2.0 0.08 0.66 0.65 94 999.9
20260902232020 60 248 0.0 2.0 0.07 0.65 0.64 94 999.9
20260902231059 60 248 0.0 2.0 0.06 0.63 0.62 94 999.9
20260902230019 60 225 1.0 2.0 0.04 0.61 0.60 94 999.9
20260902225020 61 203 0.0 1.0 0.03 0.59 0.58 94 999.9
20260902224019 61 203 0.0 1.0 0.03 0.58 0.57 94 999.9
20260902223019 61 203 1.0 3.0 0.03 0.58 0.57 94 999.9
20260902222020 61 203 2.0 4.0 0.04 0.58 0.57 94 999.9
20260902221019 61 225 1.0 3.0 0.04 0.57 0.56 94 1000.1
20260902220020 61 158 0.0 2.0 0.05 0.57 0.56 94 1000.2
20260902215019 61 158 1.0 3.0 0.05 0.56 0.55 93 1000.2
20260902214019 61 158 1.0 3.0 0.04 0.55 0.54 93 1000.4
20260902213019 61 180 3.0 6.0 0.04 0.55 0.54 93 1000.4
20260902212059 61 135 2.0 4.0 0.04 0.54 0.53 93 1000.4
20260902211020 61 158 3.0 6.0 0.03 0.53 0.52 92 1000.4
20260902210019 61 180 1.0 3.0 0.02 0.52 0.51 92 1000.4
20260902205100 61 135 2.0 3.0 0.02 0.51 0.50 92 1000.4
20260902204059 61 113 1.0 3.0 0.03 0.51 0.50 92 1000.4
20260902203019 61 158 4.0 8.0 0.04 0.51 0.50 92 1000.4
20260902202019 61 180 6.0 12.0 0.04 0.50 0.49 91 1000.4
20260902201019 62 180 5.0 9.0 0.04 0.50 0.49 92 1000.4
20260902200059 62 180 3.0 4.0 0.03 0.49 0.49 92 1000.5
20260902195019 62 180 5.0 7.0 0.03 0.49 0.48 90 1000.5
20260902194019 63 180 5.0 8.0 0.02 0.48 0.47 87 1000.6
20260902193020 64 225 5.0 10.0 0.01 0.47 0.46 87 1000.5
20260902192019 64 203 2.0 4.0 0.00 0.46 0.45 89 1000.5
20260902191019 64 248 2.0 4.0 0.00 0.46 0.45 88 1000.7
20260902190018 64 315 1.0 3.0 0.00 0.46 0.45 90 1000.8
20260902185019 63 293 2.0 5.0 0.00 0.46 0.45 90 1000.8
20260902184020 63 293 1.0 3.0 0.00 0.46 0.45 93 1001.0
20260902183058 63 225 1.0 2.0 0.00 0.46 0.45 93 1001.2
20260902182058 62 203 1.0 2.0 0.00 0.46 0.45 94 1001.3
20260902181018 62 248 2.0 3.0 0.00 0.46 0.45 95 1001.4
20260902180059 62 315 2.0 4.0 0.00 0.46 0.45 96 1001.5
20260902175018 61 315 1.0 3.0 0.00 0.46 0.45 96 1001.5
20260902174059 61 248 0.0 2.0 0.00 0.46 0.45 96 1001.5
20260902173019 61 270 1.0 2.0 0.00 0.46 0.45 97 1001.5
20260902172059 60 338 0.0 2.0 0.00 0.46 0.45 97 1001.5
20260902171059 60 0 1.0 2.0 0.00 0.46 0.45 97 1001.6
20260902170019 60 0 1.0 2.0 0.00 0.46 0.45 97 1001.7
20260902165018 60 0 2.0 3.0 0.00 0.46 0.45 97 1001.7
20260902164019 59 23 2.0 5.0 0.00 0.46 0.45 97 1001.8
20260902163019 59 23 2.0 4.0 0.00 0.46 0.45 97 1001.9
20260902162018 59 0 4.0 7.0 0.00 0.46 0.45 97 1001.9
20260902161019 59 0 4.0 8.0 0.01 0.46 0.45 96 1002.0
20260902160019 58 0 2.0 4.0 0.01 0.46 0.45 96 1002.0
20260902155038 58 203 1.0 2.0 0.01 0.46 0.45 96 1002.0
20260902154059 58 315 1.0 2.0 0.01 0.46 0.45 96 1002.0
20260902153019 58 0 0.0 2.0 0.02 0.46 0.45 95 1001.9
20260902152059 58 158 0.0 2.0 0.02 0.46 0.45 95 1001.9
20260902151018 58 68 1.0 4.0 0.02 0.45 0.44 95 1002.0
20260902150018 58 0 1.0 3.0 0.02 0.45 0.44 95 1002.0
20260902145018 58 113 4.0 7.0 0.03 0.45 0.44 96 1002.0
20260902144018 58 113 4.0 10.0 0.03 0.45 0.44 97 1002.1
20260902143019 58 90 2.0 5.0 0.02 0.44 0.43 97 1002.0
20260902142018 58 248 3.0 6.0 0.01 0.43 0.42 97 1002.0
20260902141018 58 23 4.0 6.0 0.02 0.43 0.42 97 1001.8
20260902140059 58 338 4.0 8.0 0.02 0.42 0.41 97 1001.7
20260902135019 58 338 2.0 4.0 0.06 0.42 0.41 97 1001.7
20260902134019 58 45 2.0 3.0 0.07 0.42 0.41 96 1002.0
20260902133018 58 134 0.0 0.0 0.07 0.42 0.41 96 1002.1
20260902132018 58 90 1.0 3.0 0.07 0.42 0.41 96 1002.1
20260902131018 58 90 2.0 3.0 0.07 0.41 0.40 96 1002.2
20260902130018 58 45 2.0 3.0 0.06 0.40 0.39 96 1002.3
20260902125019 58 45 2.0 4.0 0.02 0.36 0.35 96 1002.3
20260902124018 58 45 2.0 3.0 0.03 0.35 0.34 96 1002.3
20260902123058 58 23 1.0 3.0 0.07 0.35 0.34 96 1002.4
20260902122018 58 23 3.0 5.0 0.09 0.35 0.34 96 1002.4